Location: Newark
(43.4306°N, 0.3089°E)
Time: 12:10:18
(UTC+00:00)

A-11 Canister half - Pass Details

Date: 29 August 2019
Orbit: 1513 x 1686 km, 47.2° (Epoch: 19 September)

Event Time Altitude Azimuth Distance (km) Brightness Sun altitude
Rises 19:28:53 0° 280° (W) 4,700 13.5 -9.3°
Reaches altitude 10° 19:31:55 10° 283° (WNW) 3,735 12.6 -9.8°
Maximum altitude 19:41:25 73° 8° (N) 1,651 9.2 -11.4°
Enters shadow 19:50:43 12° 93° (E) 3,689 10.4 -12.9°
